Date String (YYYY-MM-DD hh:mm:ss) UTC,Instrument flags,Ambient pressure (hPa),Sample flow (lpm),Bypass flow (lpm),Sample temperature (°C),Ambient temperature (°C),ASC tube jacket temperature (°C),LED temperature (°C),Box temperature (°C),Sample RH (%),Span deviation,Mass concentration (μg/m³),Mass concentration (μg/m³),Mass concentration (μg/m³)
DateTimeUTC,F1_M11,P_M11,Q1_M11,Q2_M11,T1_M11,T2_M11,T3_M11,T4_M11,T5_M11,U1_M11,ZSPAN_M11,X0_M11,X2_M11,X1_M11
2022-04-15 05:00:00,,0819.2,5.00,0.00,22.7,21.8,00.0,31.8,24.4,07.2,0000.0,0008.80,0003.56,0002.23
2022-04-15 05:01:00,,0819.2,5.01,0.00,22.7,21.8,00.0,31.7,24.4,07.2,0000.0,0008.93,0003.55,0002.22
2022-04-15 05:02:00,,0819.2,5.00,0.00,22.7,21.8,00.0,31.7,24.4,07.2,0000.0,0008.82,0003.48,0002.20
2022-04-15 05:03:00,,0819.3,4.99,0.00,22.6,21.8,00.0,31.7,24.4,07.2,0000.0,0008.66,0003.43,0002.19
2022-04-15 05:04:00,,0819.3,5.00,0.00,22.6,21.8,00.0,31.7,24.4,07.3,0000.0,0008.56,0003.40,0002.19
2022-04-15 05:05:00,,0819.3,5.02,0.00,22.6,21.8,00.0,31.7,24.4,07.3,0000.0,0008.59,0003.41,0002.19
2022-04-15 05:06:00,,0819.2,5.00,0.00,22.6,21.8,00.0,31.7,24.4,07.3,0000.0,0008.77,0003.41,0002.20
2022-04-15 05:07:00,,0819.3,5.00,0.00,22.6,21.8,00.0,31.7,24.4,07.2,0000.0,0008.79,0003.39,0002.19
2022-04-15 05:08:00,,0819.3,5.00,0.00,22.6,21.8,00.0,31.7,24.3,07.1,0000.0,0008.78,0003.38,0002.19
2022-04-15 05:09:00,,0819.3,5.00,0.00,22.6,21.8,00.0,31.7,24.3,07.1,0000.0,0008.10,0003.36,0002.19
2022-04-15 05:10:00,,0819.2,4.99,0.00,22.6,21.8,00.0,31.7,24.3,07.1,0000.0,0007.82,0003.33,0002.17
2022-04-15 05:11:00,,0819.2,5.00,0.00,22.6,21.8,00.0,31.6,24.3,07.0,0000.0,0007.40,0003.32,0002.16
2022-04-15 05:12:00,,0819.1,5.00,0.00,22.6,21.8,00.0,31.6,24.3,06.9,0000.0,0007.00,0003.27,0002.14
2022-04-15 05:13:00,,0819.1,5.00,0.00,22.6,21.8,00.0,31.6,24.3,06.9,0000.0,0006.94,0003.25,0002.12
2022-04-15 05:14:00,,0819.1,5.00,0.00,22.5,21.8,00.0,31.6,24.3,06.9,0000.0,0007.37,0003.25,0002.11
2022-04-15 05:15:00,,0819.1,5.00,0.00,22.5,21.7,00.0,31.6,24.3,07.0,0000.0,0007.44,0003.23,0002.09
2022-04-15 05:16:00,,0819.1,5.00,0.00,22.5,21.7,00.0,31.6,24.3,06.9,0000.0,0007.78,0003.24,0002.05
2022-04-15 05:17:00,,0819.1,5.00,0.00,22.5,21.7,00.0,31.6,24.2,06.9,0000.0,0007.57,0003.22,0002.00
2022-04-15 05:18:00,,0819.1,5.00,0.00,22.5,21.7,00.0,31.6,24.2,06.9,0000.0,0007.48,0003.19,0001.98
2022-04-15 05:19:00,,0819.1,5.00,0.00,22.4,21.7,00.0,31.6,24.2,06.9,0000.0,0007.47,0003.19,0001.95
2022-04-15 05:20:00,,0819.1,5.01,0.00,22.4,21.7,00.0,31.5,24.2,07.0,0000.0,0007.34,0003.17,0001.93
2022-04-15 05:21:00,,0819.0,5.00,0.00,22.4,21.6,00.0,31.5,24.1,06.9,0000.0,0007.46,0003.19,0001.92
2022-04-15 05:22:00,,0818.9,5.00,0.00,22.4,21.6,00.0,31.5,24.1,07.0,0000.0,0007.61,0003.18,0001.90
2022-04-15 05:23:00,,0819.0,5.00,0.00,22.4,21.6,00.0,31.5,24.1,07.0,0000.0,0007.90,0003.19,0001.89
2022-04-15 05:24:00,,0818.9,5.00,0.00,22.4,21.6,00.0,31.5,24.1,07.0,0000.0,0008.39,0003.19,0001.90
2022-04-15 05:25:00,,0818.9,5.00,0.00,22.3,21.6,00.0,31.5,24.1,06.9,0000.0,0008.16,0003.18,0001.89
2022-04-15 05:26:00,,0818.9,5.00,0.00,22.3,21.6,00.0,31.5,24.0,06.9,0000.0,0008.10,0003.18,0001.89
2022-04-15 05:27:00,,0818.9,4.99,0.00,22.3,21.6,00.0,31.4,24.1,07.0,0000.0,0008.06,0003.17,0001.89
2022-04-15 05:28:00,,0818.9,5.00,0.00,22.3,21.5,00.0,31.4,24.1,07.0,0000.0,0008.35,0003.21,0001.92
2022-04-15 05:29:00,,0818.9,5.01,0.00,22.3,21.5,00.0,31.4,24.0,06.9,0000.0,0008.50,0003.27,0001.93
2022-04-15 05:30:00,,0819.0,5.00,0.00,22.3,21.5,00.0,31.4,24.0,06.9,0000.0,0008.44,0003.25,0001.94
2022-04-15 05:31:00,,0818.9,5.00,0.00,22.3,21.5,00.0,31.4,24.0,06.9,0000.0,0008.52,0003.25,0001.95
2022-04-15 05:32:00,,0818.9,5.00,0.00,22.3,21.5,00.0,31.4,24.0,06.9,0000.0,0008.50,0003.25,0001.95
2022-04-15 05:33:00,,0818.9,5.00,0.00,22.3,21.5,00.0,31.4,24.0,07.0,0000.0,0008.53,0003.28,0001.97
2022-04-15 05:34:00,,0818.9,5.00,0.00,22.3,21.5,00.0,31.4,24.0,06.9,0000.0,0008.55,0003.32,0001.97
2022-04-15 05:35:00,,0818.9,5.00,0.00,22.2,21.5,00.0,31.4,24.0,06.9,0000.0,0007.90,0003.35,0001.98
2022-04-15 05:36:00,,0818.8,5.02,0.00,22.2,21.5,00.0,31.3,24.0,06.9,0000.0,0008.04,0003.37,0001.98
2022-04-15 05:37:00,,0818.8,5.01,0.00,22.2,21.5,00.0,31.3,23.9,06.9,0000.0,0008.08,0003.39,0001.98
2022-04-15 05:38:00,,0818.8,5.00,0.00,22.2,21.5,00.0,31.3,23.9,07.0,0000.0,0007.87,0003.39,0001.98
2022-04-15 05:39:00,,0818.8,5.00,0.00,22.2,21.4,00.0,31.3,23.9,07.0,0000.0,0007.61,0003.40,0001.98
2022-04-15 05:40:00,,0818.8,5.01,0.00,22.2,21.4,00.0,31.3,23.9,07.0,0000.0,0007.60,0003.40,0002.00
2022-04-15 05:41:00,,0818.8,5.00,0.00,22.2,21.4,00.0,31.3,23.9,07.1,0000.0,0007.60,0003.39,0002.01
2022-04-15 05:42:00,,0818.8,5.00,0.00,22.2,21.4,00.0,31.3,23.9,07.1,0000.0,0007.56,0003.37,0002.00
2022-04-15 05:43:00,,0818.8,5.00,0.00,22.1,21.4,00.0,31.3,23.9,07.1,0000.0,0008.35,0003.38,0002.01
2022-04-15 05:44:00,,0818.8,5.00,0.00,22.1,21.4,00.0,31.3,23.9,07.1,0000.0,0008.30,0003.38,0002.02
2022-04-15 05:45:00,,0818.9,5.00,0.00,22.1,21.4,00.0,31.2,23.9,07.1,0000.0,0008.32,0003.39,0002.03
2022-04-15 05:46:00,,0818.8,5.00,0.00,22.1,21.3,00.0,31.2,23.8,07.1,0000.0,0008.31,0003.39,0002.02
2022-04-15 05:47:00,,0818.8,4.99,0.00,22.1,21.3,00.0,31.2,23.8,07.1,0000.0,0008.23,0003.37,0002.03
2022-04-15 05:48:00,,0818.7,5.00,0.00,22.1,21.3,00.0,31.2,23.8,07.1,0000.0,0008.27,0003.41,0002.03
2022-04-15 05:49:00,,0818.8,5.00,0.00,22.1,21.3,00.0,31.2,23.8,07.2,0000.0,0008.18,0003.43,0002.05
2022-04-15 05:50:00,,0818.7,4.99,0.00,22.0,21.3,00.0,31.2,23.8,07.2,0000.0,0008.16,0003.44,0002.05
2022-04-15 05:51:00,,0818.8,5.00,0.00,22.0,21.3,00.0,31.2,23.8,07.2,0000.0,0008.10,0003.43,0002.05
2022-04-15 05:52:00,,0818.7,5.00,0.00,22.0,21.2,00.0,31.2,23.7,07.2,0000.0,0008.06,0003.42,0002.04
2022-04-15 05:53:00,,0818.8,5.00,0.00,22.0,21.2,00.0,31.1,23.7,07.2,0000.0,0008.06,0003.43,0002.06
2022-04-15 05:54:00,,0818.8,5.00,0.00,22.0,21.2,00.0,31.1,23.7,07.2,0000.0,0007.20,0003.42,0002.04
2022-04-15 05:55:00,,0818.7,5.00,0.00,22.0,21.2,00.0,31.1,23.7,07.2,0000.0,0006.91,0003.41,0002.04
2022-04-15 05:56:00,,0818.8,5.00,0.00,21.9,21.2,00.0,31.1,23.7,07.3,0000.0,0007.17,0003.43,0002.03
2022-04-15 05:57:00,,0818.7,5.00,0.00,21.9,21.2,00.0,31.1,23.6,07.3,0000.0,0007.69,0003.42,0002.05
2022-04-15 05:58:00,,0818.6,5.00,0.00,21.9,21.1,00.0,31.1,23.6,07.3,0000.0,0007.90,0003.47,0002.06
2022-04-15 05:59:00,,0818.6,5.00,0.00,21.9,21.1,00.0,31.0,23.6,07.3,0000.0,0007.87,0003.46,0002.07
